| time (UTC) | temp C | wind direction | speed KPH | gust KPH | rain 1hr cm | rain 24hr cm | rain mn cm | humidity % | barometer mb |
| 20260506041610 | 23 | 200 | 0.0 | 0.0 | 0.00 | 0.00 | 0.00 | 88 | 1006.8 |
| 20260506040110 | 23 | 206 | 0.0 | 0.0 | 0.00 | 0.00 | 0.00 | 88 | 1007.1 |
| 20260506034515 | 23 | 204 | 0.0 | 0.0 | 0.00 | 0.00 | 0.00 | 87 | 1006.8 |
| 20260506033003 | 24 | 164 | 0.0 | 0.0 | 0.00 | 0.00 | 0.00 | 87 | 1007.0 |
| 20260506031616 | 24 | 164 | 0.0 | 0.0 | 0.00 | 0.00 | 0.00 | 87 | 1007.1 |
| 20260506030012 | 24 | 164 | 0.0 | 0.0 | 0.00 | 0.00 | 0.00 | 86 | 1007.0 |
| 20260506024516 | 24 | 164 | 0.0 | 0.0 | 0.00 | 0.00 | 0.00 | 85 | 1006.7 |
| 20260506023121 | 25 | 164 | 0.0 | 0.0 | 0.00 | 0.00 | 0.00 | 84 | 1006.4 |
| 20260506021622 | 25 | 164 | 0.0 | 0.0 | 0.00 | 0.00 | 0.00 | 83 | 1006.3 |
| 20260506020107 | 25 | 164 | 0.0 | 0.0 | 0.00 | 0.00 | 0.00 | 82 | 1006.2 |
| 20260506014615 | 25 | 164 | 0.0 | 0.0 | 0.00 | 0.00 | 0.00 | 81 | 1006.1 |
| 20260506013019 | 25 | 164 | 0.0 | 1.6 | 0.00 | 0.00 | 0.00 | 81 | 1006.0 |
| 20260506011524 | 26 | 164 | 0.0 | 1.6 | 0.00 | 0.00 | 0.00 | 80 | 1005.6 |
| 20260506010007 | 26 | 164 | 0.0 | 1.6 | 0.00 | 0.00 | 0.00 | 79 | 1005.1 |
| 20260506004513 | 26 | 164 | 0.0 | 3.2 | 0.00 | 0.00 | 0.00 | 78 | 1005.1 |
| 20260506003021 | 27 | 193 | 0.0 | 0.0 | 0.00 | 0.00 | 0.00 | 77 | 1005.1 |
| 20260506000012 | 27 | 179 | 0.0 | 3.2 | 0.00 | 0.00 | 0.00 | 75 | 1005.1 |
| 20260505234508 | 27 | 166 | 0.0 | 3.2 | 0.00 | 0.00 | 0.00 | 74 | 1005.0 |
| 20260505233113 | 27 | 162 | 0.0 | 3.2 | 0.00 | 0.00 | 0.00 | 74 | 1005.0 |
| 20260505231532 | 28 | 199 | 1.6 | 6.4 | 0.00 | 0.00 | 0.00 | 73 | 1004.8 |
| 20260505230023 | 28 | 155 | 0.0 | 3.2 | 0.00 | 0.00 | 0.00 | 72 | 1004.7 |
| 20260505224517 | 28 | 158 | 0.0 | 1.6 | 0.00 | 0.00 | 0.00 | 73 | 1004.8 |
| 20260505221508 | 28 | 180 | 1.6 | 6.4 | 0.00 | 0.00 | 0.00 | 71 | 1005.1 |
| 20260505220009 | 29 | 171 | 0.0 | 1.6 | 0.00 | 0.00 | 0.00 | 71 | 1005.2 |
| 20260505214511 | 28 | 172 | 0.0 | 1.6 | 0.00 | 0.00 | 0.00 | 73 | 1005.4 |
| 20260505213016 | 28 | 131 | 0.0 | 3.2 | 0.00 | 0.00 | 0.00 | 73 | 1005.3 |
| 20260505211607 | 28 | 185 | 0.0 | 3.2 | 0.00 | 0.00 | 0.00 | 70 | 1005.3 |
| 20260505210106 | 29 | 154 | 0.0 | 6.4 | 0.00 | 0.00 | 0.00 | 70 | 1005.5 |
| 20260505204514 | 28 | 160 | 0.0 | 8.0 | 0.00 | 0.00 | 0.00 | 70 | 1005.2 |
| 20260505203014 | 29 | 183 | 0.0 | 11.3 | 0.00 | 0.00 | 0.00 | 70 | 1005.5 |
| 20260505201608 | 28 | 199 | 3.2 | 11.3 | 0.00 | 0.00 | 0.00 | 69 | 1005.7 |
| 20260505200022 | 28 | 152 | 0.0 | 6.4 | 0.00 | 0.00 | 0.00 | 73 | 1005.9 |
| 20260505194516 | 27 | 184 | 1.6 | 6.4 | 0.00 | 0.00 | 0.00 | 73 | 1006.2 |
| 20260505193020 | 27 | 158 | 0.0 | 6.4 | 0.00 | 0.00 | 0.00 | 73 | 1006.4 |
| 20260505191522 | 27 | 155 | 0.0 | 6.4 | 0.00 | 0.00 | 0.00 | 72 | 1006.5 |
| 20260505190109 | 27 | 147 | 3.2 | 17.7 | 0.00 | 0.00 | 0.00 | 73 | 1006.5 |
| 20260505184526 | 27 | 161 | 3.2 | 12.9 | 0.00 | 0.00 | 0.00 | 74 | 1006.6 |
| 20260505183015 | 27 | 183 | 0.0 | 6.4 | 0.00 | 0.00 | 0.00 | 74 | 1006.4 |
| 20260505181505 | 27 | 172 | 0.0 | 6.4 | 0.00 | 0.00 | 0.00 | 74 | 1006.5 |
| 20260505180104 | 26 | 186 | 0.0 | 8.0 | 0.00 | 0.00 | 0.00 | 76 | 1006.6 |
| 20260505174606 | 26 | 160 | 3.2 | 8.0 | 0.00 | 0.00 | 0.00 | 76 | 1006.7 |
| 20260505173019 | 25 | 142 | 0.0 | 8.0 | 0.00 | 0.00 | 0.00 | 78 | 1006.9 |
| 20260505171515 | 25 | 132 | 0.0 | 6.4 | 0.00 | 0.00 | 0.00 | 79 | 1007.0 |
| 20260505170016 | 24 | 161 | 0.0 | 3.2 | 0.00 | 0.00 | 0.00 | 81 | 1007.1 |
| 20260505164511 | 23 | 160 | 0.0 | 8.0 | 0.00 | 0.00 | 0.00 | 81 | 1007.2 |
| 20260505163108 | 23 | 137 | 0.0 | 6.4 | 0.00 | 0.00 | 0.00 | 82 | 1007.6 |
| 20260505161520 | 23 | 133 | 1.6 | 4.8 | 0.00 | 0.00 | 0.00 | 83 | 1007.5 |
| 20260505160117 | 23 | 166 | 0.0 | 6.4 | 0.00 | 0.00 | 0.00 | 83 | 1007.5 |
| 20260505153021 | 22 | 122 | 0.0 | 3.2 | 0.00 | 0.00 | 0.00 | 85 | 1007.3 |
| 20260505151619 | 22 | 164 | 0.0 | 3.2 | 0.00 | 0.00 | 0.00 | 86 | 1007.6 |
| 20260505150106 | 21 | 46 | 0.0 | 6.4 | 0.00 | 0.00 | 0.00 | 87 | 1007.4 |
| 20260505140120 | 21 | 197 | 0.0 | 0.0 | 0.00 | 0.00 | 0.00 | 88 | 1007.5 |
| 20260505124607 | 19 | 70 | 0.0 | 0.0 | 0.00 | 0.00 | 0.00 | 90 | 1007.3 |
| 20260505123011 | 19 | 70 | 0.0 | 0.0 | 0.00 | 0.00 | 0.00 | 90 | 1007.2 |
| 20260505121514 | 18 | 332 | 0.0 | 0.0 | 0.00 | 0.00 | 0.00 | 90 | 1006.9 |
| 20260505120116 | 18 | 332 | 0.0 | 0.0 | 0.00 | 0.00 | 0.00 | 91 | 1006.9 |
| 20260505114603 | 18 | 332 | 0.0 | 0.0 | 0.00 | 0.00 | 0.00 | 91 | 1006.9 |
| 20260505113105 | 18 | 318 | 0.0 | 0.0 | 0.00 | 0.00 | 0.00 | 91 | 1006.7 |
| 20260505111605 | 18 | 58 | 0.0 | 0.0 | 0.00 | 0.00 | 0.00 | 90 | 1006.7 |
| 20260505101508 | 18 | 74 | 0.0 | 0.0 | 0.00 | 0.00 | 0.00 | 88 | 1006.8 |
| 20260505100010 | 18 | 75 | 0.0 | 0.0 | 0.00 | 0.00 | 0.00 | 87 | 1006.9 |
| 20260505094609 | 18 | 74 | 0.0 | 0.0 | 0.00 | 0.00 | 0.00 | 87 | 1007.1 |
| 20260505093020 | 19 | 74 | 0.0 | 0.0 | 0.00 | 0.00 | 0.00 | 86 | 1007.5 |
| 20260505091518 | 19 | 74 | 0.0 | 3.2 | 0.00 | 0.00 | 0.00 | 86 | 1007.5 |
| 20260505090108 | 19 | 58 | 0.0 | 1.6 | 0.00 | 0.00 | 0.00 | 86 | 1007.5 |
| 20260505084511 | 19 | 29 | 0.0 | 0.0 | 0.00 | 0.00 | 0.00 | 85 | 1007.4 |
| 20260505083009 | 19 | 31 | 0.0 | 0.0 | 0.00 | 0.00 | 0.00 | 85 | 1007.5 |
| 20260505081510 | 19 | 12 | 0.0 | 0.0 | 0.00 | 0.00 | 0.00 | 85 | 1007.6 |
| 20260505080110 | 18 | 12 | 0.0 | 0.0 | 0.00 | 0.00 | 0.00 | 85 | 1007.9 |
| 20260505074520 | 18 | 12 | 0.0 | 0.0 | 0.00 | 0.00 | 0.00 | 85 | 1007.9 |
| 20260505073016 | 18 | 12 | 0.0 | 0.0 | 0.00 | 0.00 | 0.00 | 84 | 1007.9 |
| 20260505071620 | 19 | 12 | 0.0 | 0.0 | 0.00 | 0.00 | 0.00 | 82 | 1007.9 |
| 20260505070016 | 19 | 12 | 0.0 | 0.0 | 0.00 | 0.00 | 0.00 | 81 | 1008.4 |
| 20260505064517 | 20 | 33 | 0.0 | 0.0 | 0.00 | 0.00 | 0.00 | 81 | 1008.4 |
| 20260505063120 | 20 | 39 | 0.0 | 0.0 | 0.00 | 0.00 | 0.00 | 81 | 1008.5 |
| 20260505061506 | 20 | 29 | 0.0 | 0.0 | 0.00 | 0.00 | 0.00 | 80 | 1008.8 |
| 20260505060011 | 20 | 9 | 0.0 | 0.0 | 0.00 | 0.00 | 0.00 | 80 | 1008.9 |
| 20260505054610 | 20 | 25 | 0.0 | 0.0 | 0.00 | 0.00 | 0.00 | 80 | 1008.7 |
| 20260505053016 | 20 | 24 | 0.0 | 0.0 | 0.00 | 0.00 | 0.00 | 80 | 1008.8 |
| 20260505051603 | 20 | 11 | 0.0 | 1.6 | 0.00 | 0.00 | 0.00 | 80 | 1008.8 |